Weather in Tyushevo

Russia / Ryazan Oblast     54°40′13″N   39°31′34″E
temp.,
°C
wind,
m/s
gust,
m/s
humid.,
%
clouds,
%
prec.,
mm/h
press.,
hPa
HPBL,
m
27 february, sat
sat2700:00+2w8168999 0.0 1002682
03:00+1wnw8158881 0.0 1002899
06:00+1wnw91692100 0.0 1001959
09:00−6nnw81485100 0.8 1004785
12:00−8nnw71187100 0.0 1006655
15:00−7nnw5987100 0.0 1009584
18:00−9nnw349289 0.0 101157
21:00−10nnw349456 0.0 101382
28 february, sun
sun2800:00−9nnw369687 0.1 1014164
03:00−12nw349572 0.1 101568
06:00−12nw239661 0.0 101534
09:00−9nw239577 0.3 1015195
12:00−5nnw2391100 0.1 1015339
15:00−3nw3491100 0.1 1016477
18:00−3nnw2295100 0.1 101652
21:00−6nne129597 0.1 101921
1 march, mon
mon100:00−8nnw119579 0.0 102021
03:00−8ese119789 0.1 102221
06:00−8ssw0197100 0.1 102321
09:00−8sw129693 0.2 102425
12:00−3wsw239290 0.0 1023306
15:00−1wsw469290 0.1 1023539
18:00−1wsw4990100 0.1 1021430
21:000wsw61292100 0.1 1019595
2 march, tue
tue200:000wsw71392100 0.0 1015544
03:00+1w61394100 0.4 1012684
06:00+1w71498100 0.1 1010682
09:00+1nw71389100 0.4 1010746
12:00+1nw7139381 0.1 10111051
15:00+1nw6128976 0.2 1011922
18:000nw6148586 0.1 1011588
21:00−1nw6148790 0.1 1012694
3 march, wed
wed300:00−3nw5129222 0.0 1013349
03:00−3nw6129343 0.1 1014552
06:00−3nnw6118991 0.1 1015757
09:00−4nw6139363 0.1 1016591
12:00−2nw71088100 0.1 1017900
15:00−1nw6985100 0.1 1017901
18:00−1nw51089100 0.0 1017568
21:00−2nw41085100 0.1 1018550